Epoch 2022 Aug. 9.0 TT = JDT 2459800.5
T 2019 Oct. 26.53336 TT Rudenko
q 1.4203404 (2000.0) P Q
n 0.14756860 Peri. 133.75928 +0.94104285 +0.32327794
a 3.5465553 Node 207.82939 -0.33759277 +0.91631032
e 0.5995155 Incl. 12.32473 +0.02166742 +0.23636152
P 6.68
From 368 observations 2006 Aug. 23-2019 Nov. 15, mean residual 0".7.